Temp
85 87 80 80 80 80 81 80 80 80 79 79 79 79 79 79 79 79 79 79 79 80 80 80 80 79 79 79 79 79 79 79 79 79 78 78 78 77 77 77 79 83 77
88 86 80 80 80 80 80 80 79 79 79 79 80 79 79 79 79 79 79 79 80 80 80 80 80 80 80 80 79 79 79 79 79 79 78 78 78 77 77 77 78 80 77
88 87 84 79 80 80 80 79 79 79 79 79 79 79 79 79 79 79 79 79 80 80 80 80 80 80 80 79 79 78 78 78 78 78 78 86 84 78 77 77 76 76 76
88 86 86 79 80 80 79 79 79 79 79 79 79 79 79 79 79 79 79 80 80 80 80 80 80 79 79 79 79 78 78 78 78 77 85 85 84 77 77 76 76 76 76
87 88 85 79 79 79 79 79 79 79 79 79 79 79 79 79 79 79 79 80 80 81 80 80 80 79 79 79 78 78 78 78 78 80 85 85 85 79 76 76 76 75 76
89 89 82 79 79 79 79 79 79 79 79 79 79 79 79 79 79 79 79 80 80 81 80 80 79 79 79 78 78 78 78 79 78 85 82 80 83 76 76 76 76 75 75
89 90 87 79 79 79 79 79 79 79 79 79 79 79 79 79 78 79 79 79 80 80 79 79 79 78 78 78 78 78 77 77 87 86 83 81 83 76 76 76 75 75 75
88 88 88 80 79 79 79 79 78 78 78 79 79 79 79 78 78 79 79 79 79 79 79 79 78 78 78 78 78 78 78 78 84 85 84 85 77 76 76 76 75 75 75
89 88 87 87 82 79 79 78 78 78 78 78 78 78 78 78 78 78 78 79 79 79 79 79 78 78 78 78 78 78 78 78 88 87 85 85 76 76 76 76 75 75 75
88 88 87 86 88 87 86 78 78 78 78 78 78 78 78 78 78 78 78 79 79 79 79 79 78 78 78 78 77 78 78 78 88 87 86 87 76 77 77 76 76 75 75
86 87 88 87 87 87 88 84 79 79 78 78 79 78 78 86 85 84 82 79 79 79 79 79 78 78 78 78 77 78 78 89 89 88 88 78 76 77 77 76 76 75 75
84 85 86 86 86 87 87 86 85 86 86 85 85 83 86 85 85 86 83 78 78 78 78 78 78 78 78 89 89 79 88 88 88 87 88 77 76 78 78 77 76 76 75
86 85 85 84 83 86 87 86 86 86 85 84 83 83 83 85 84 85 86 86 85 81 87 85 86 87 87 87 88 87 86 87 89 86 85 76 76 78 78 77 76 76 75
82 82 85 85 81 83 86 84 85 85 85 84 84 82 82 82 82 83 86 86 84 87 85 85 88 85 85 85 85 86 87 87 90 86 85 75 76 77 79 78 77 76 76
81 83 84 83 81 82 80 83 83 83 83 85 84 83 84 83 82 83 84 85 85 87 86 86 86 85 85 85 86 85 87 87 87 87 87 75 76 76 78 79 78 77 76
82 84 84 83 82 83 80 81 82 83 84 83 84 84 82 83 81 83 82 83 84 85 87 86 85 84 84 84 84 84 84 86 87 85 76 85 75 76 77 78 79 78 77
84 83 82 82 82 80 80 81 82 84 85 83 84 82 81 81 80 81 83 82 84 84 84 82 82 82 81 82 82 85 86 86 87 85 86 86 84 74 76 77 78 77 78
82 79 82 85 84 81 80 81 83 84 83 83 83 83 81 81 81 79 82 82 84 82 82 82 82 81 81 82 82 85 86 85 85 85 85 79 85 86 79 76 76 78 78
78 79 78 79 82 82 80 81 81 81 81 82 82 83 81 81 82 80 81 80 80 82 82 81 82 80 81 82 83 84 85 86 85 86 86 85 84 83 85 79 75 76 77
78 78 79 79 79 79 80 79 81 81 81 81 82 82 81 82 81 80 81 80 81 82 82 81 79 81 81 83 85 85 83 85 84 84 84 85 84 82 83 82 83 83 75
75 74 75 77 77 80 81 81 81 79 81 81 81 81 81 82 81 79 80 80 79 78 79 79 80 78 81 81 79 81 82 81 81 82 84 84 83 84 83 83 83 84 83
66 67 68 69 71 75 79 79 82 82 83 83 82 80 81 81 81 78 77 78 78 78 75 77 77 80 80 81 80 79 78 81 82 83 83 83 82 83 83 83 83 81 82
66 66 67 68 70 72 74 75 76 79 78 73 71 71 74 73 78 77 77 77 76 76 79 76 78 78 81 79 77 80 76 76 80 82 80 82 79 82 84 83 81 82 80
66 69 69 69 69 70 70 68 67 66 65 67 67 68 68 70 69 72 77 76 76 73 72 72 74 75 72 76 78 78 78 79 77 76 80 80 80 79 79 83 82 81 81
69 69 69 69 68 68 67 67 66 64 65 66 66 66 65 66 68 70 73 70 70 70 71 69 70 69 70 72 77 78 76 78 77 76 76 79 79 75 72 79 79 81 79
71 70 69 68 67 68 67 65 64 63 62 60 61 62 63 65 67 68 70 70 70 69 69 70 72 72 72 73 75 76 77 77 77 74 73 77 77 75 70 70 70 74 79
MSLP
1013.66 1014.15 1015.08 1015.41 1015.59 1015.73 1015.99 1016.08 1016.24 1016.42 1016.60 1016.80 1017.05 1017.30 1017.47 1017.68 1017.91 1018.05 1018.18 1018.28 1018.37 1018.47 1018.59 1018.83 1019.04 1019.10 1019.14 1019.18 1019.18 1019.19 1019.15 1019.01 1019.04 1019.12 1019.22 1019.34 1019.39 1019.41 1019.39 1019.40 1019.14 1019.04 1019.46
1013.20 1014.18 1014.90 1015.26 1015.69 1015.86 1016.02 1016.26 1016.43 1016.65 1016.83 1017.07 1017.31 1017.58 1017.75 1017.90 1018.10 1018.28 1018.41 1018.52 1018.63 1018.73 1018.81 1018.94 1019.22 1019.36 1019.42 1019.41 1019.51 1019.55 1019.62 1019.54 1019.44 1019.45 1019.54 1019.63 1019.68 1019.68 1019.67 1019.74 1019.59 1019.56 1019.67
1013.25 1014.19 1015.00 1015.42 1015.74 1016.08 1016.24 1016.35 1016.48 1016.67 1016.90 1017.18 1017.53 1017.81 1018.08 1018.26 1018.43 1018.59 1018.79 1018.91 1018.98 1019.11 1019.21 1019.26 1019.39 1019.56 1019.68 1019.70 1019.79 1019.89 1019.97 1019.97 1019.91 1019.84 1019.75 1019.25 1019.56 1020.03 1020.01 1020.04 1020.07 1020.03 1019.97
1013.23 1014.03 1014.67 1015.45 1015.80 1016.13 1016.34 1016.61 1016.86 1016.88 1017.13 1017.35 1017.71 1018.01 1018.24 1018.37 1018.55 1018.71 1018.94 1019.12 1019.27 1019.43 1019.50 1019.62 1019.71 1019.80 1019.95 1020.05 1020.03 1020.02 1020.05 1020.08 1020.12 1020.16 1019.57 1019.44 1019.63 1020.25 1020.25 1020.17 1020.17 1020.26 1020.28
1013.52 1014.08 1014.66 1015.25 1015.63 1016.05 1016.39 1016.47 1016.78 1017.06 1017.29 1017.65 1017.93 1018.22 1018.47 1018.59 1018.74 1018.93 1019.12 1019.30 1019.39 1019.61 1019.74 1019.82 1019.92 1019.95 1020.07 1020.15 1020.22 1020.23 1020.13 1020.06 1020.18 1019.99 1019.69 1019.68 1019.58 1020.20 1020.34 1020.41 1020.46 1020.46 1020.41
1013.25 1013.76 1014.52 1015.15 1015.40 1015.75 1016.12 1016.57 1016.85 1017.12 1017.31 1017.72 1017.91 1018.17 1018.39 1018.62 1018.87 1018.91 1019.13 1019.33 1019.54 1019.72 1019.84 1019.90 1020.04 1020.14 1020.19 1020.23 1020.19 1020.13 1020.16 1020.11 1020.27 1019.85 1019.96 1020.19 1019.89 1020.36 1020.43 1020.45 1020.64 1020.67 1020.70
1013.55 1013.91 1014.44 1014.89 1015.28 1015.64 1016.00 1016.52 1016.95 1017.27 1017.45 1017.66 1017.98 1018.31 1018.52 1018.69 1018.97 1019.07 1019.32 1019.45 1019.50 1019.68 1019.86 1020.03 1020.21 1020.25 1020.27 1020.26 1020.21 1020.13 1020.27 1020.39 1019.83 1019.86 1020.05 1020.07 1020.01 1020.49 1020.51 1020.54 1020.67 1020.83 1020.80
1013.64 1014.03 1014.57 1015.47 1015.63 1015.77 1016.19 1016.45 1016.96 1017.40 1017.70 1017.94 1018.21 1018.46 1018.68 1018.91 1019.10 1019.32 1019.51 1019.60 1019.62 1019.76 1019.84 1019.95 1020.13 1020.23 1020.23 1020.23 1020.22 1020.14 1020.24 1020.32 1020.08 1019.99 1020.06 1020.11 1020.47 1020.60 1020.61 1020.59 1020.69 1020.75 1020.89
1013.96 1014.42 1014.88 1015.26 1015.83 1016.20 1016.54 1016.91 1017.20 1017.38 1017.65 1017.97 1018.34 1018.62 1018.91 1019.07 1019.29 1019.41 1019.62 1019.78 1019.76 1019.82 1019.86 1019.93 1020.00 1020.14 1020.09 1020.09 1020.12 1020.16 1020.15 1020.29 1019.79 1019.92 1019.94 1019.95 1020.47 1020.43 1020.56 1020.69 1020.73 1020.79 1020.83
1014.05 1014.26 1014.79 1015.31 1015.63 1015.87 1016.40 1016.85 1017.11 1017.47 1017.65 1017.89 1018.07 1018.36 1018.76 1019.01 1019.27 1019.43 1019.66 1019.69 1019.79 1019.83 1019.91 1019.99 1019.97 1020.01 1019.94 1019.89 1020.01 1020.10 1020.10 1020.08 1019.47 1019.64 1019.75 1019.69 1020.32 1020.40 1020.43 1020.63 1020.69 1020.76 1020.82
1014.06 1014.45 1014.67 1015.12 1015.47 1015.88 1016.13 1016.74 1017.32 1017.48 1017.79 1017.99 1018.25 1018.51 1018.81 1018.67 1018.92 1019.15 1019.28 1019.63 1019.74 1019.79 1019.84 1019.87 1019.87 1019.86 1019.78 1019.75 1019.76 1019.85 1019.82 1019.12 1019.20 1019.22 1019.22 1019.78 1020.13 1020.28 1020.45 1020.61 1020.66 1020.66 1020.79
1013.60 1014.24 1014.77 1014.94 1015.29 1015.64 1015.96 1016.31 1016.83 1017.08 1017.43 1017.68 1017.99 1018.25 1018.28 1018.49 1018.73 1018.92 1019.26 1019.67 1019.81 1019.76 1019.72 1019.73 1019.79 1019.81 1019.73 1018.94 1018.98 1019.52 1018.95 1018.92 1018.94 1018.97 1018.86 1019.52 1019.69 1019.79 1019.88 1020.19 1020.48 1020.54 1020.66
1013.37 1014.16 1014.61 1015.03 1015.31 1015.35 1015.61 1016.19 1016.60 1016.93 1017.30 1017.62 1017.87 1018.11 1018.28 1018.36 1018.67 1018.79 1018.93 1019.08 1019.19 1019.47 1019.14 1019.16 1019.18 1019.16 1019.11 1019.08 1018.86 1018.91 1018.83 1018.79 1018.55 1018.71 1018.68 1019.13 1019.35 1019.42 1019.54 1019.74 1020.07 1020.30 1020.46
1013.42 1013.84 1014.05 1014.62 1015.21 1015.49 1015.66 1016.04 1016.23 1016.61 1017.06 1017.36 1017.63 1018.01 1018.19 1018.24 1018.48 1018.61 1018.56 1018.72 1019.06 1018.84 1019.00 1019.05 1018.78 1019.05 1019.22 1019.14 1019.04 1018.60 1018.38 1018.33 1018.12 1018.50 1018.41 1018.95 1019.10 1019.14 1019.25 1019.30 1019.62 1019.91 1020.22
1013.00 1013.31 1013.97 1014.60 1015.10 1015.41 1015.79 1015.64 1015.94 1016.07 1016.38 1016.59 1017.15 1017.55 1017.75 1017.84 1018.09 1018.37 1018.49 1018.63 1018.63 1018.67 1018.72 1018.59 1018.60 1018.75 1018.73 1018.69 1018.53 1018.51 1018.15 1017.95 1018.03 1017.99 1017.84 1018.41 1018.42 1018.63 1018.73 1018.82 1019.21 1019.56 1019.82
1012.48 1013.01 1013.76 1014.36 1014.93 1015.33 1015.70 1015.74 1015.76 1015.92 1016.00 1016.39 1016.70 1017.01 1017.48 1017.54 1017.77 1018.08 1018.26 1018.44 1018.50 1018.52 1018.38 1018.37 1018.45 1018.65 1018.44 1018.53 1018.23 1018.12 1018.04 1017.55 1017.45 1017.61 1017.91 1017.39 1018.06 1018.00 1018.16 1018.41 1018.70 1019.03 1019.23
1013.18 1013.71 1014.02 1014.43 1014.75 1015.23 1015.56 1015.70 1015.82 1015.70 1015.83 1016.21 1016.51 1017.05 1017.45 1017.73 1017.82 1017.87 1017.91 1018.11 1018.19 1018.44 1018.50 1018.64 1018.47 1018.53 1018.49 1018.25 1017.99 1017.55 1017.45 1017.11 1017.00 1016.97 1016.92 1016.92 1017.09 1017.68 1017.78 1017.98 1018.26 1018.42 1018.80
1013.49 1014.02 1014.39 1014.65 1014.96 1015.45 1015.63 1015.86 1015.96 1016.20 1016.35 1016.52 1016.78 1017.08 1017.52 1017.59 1017.80 1018.07 1017.84 1017.85 1017.99 1018.34 1018.26 1018.15 1018.00 1017.88 1017.82 1017.70 1017.41 1016.99 1016.57 1016.53 1016.42 1016.44 1016.61 1016.91 1016.64 1016.66 1017.15 1017.57 1017.59 1017.87 1018.33
1013.80 1013.91 1014.26 1014.67 1014.89 1015.32 1015.70 1015.97 1016.11 1016.41 1016.59 1016.73 1017.07 1017.03 1017.18 1017.29 1017.28 1017.61 1017.47 1017.60 1017.72 1017.69 1017.66 1017.74 1017.72 1017.61 1017.09 1016.84 1016.58 1016.28 1016.02 1016.02 1016.05 1015.88 1015.93 1016.05 1016.29 1016.59 1016.54 1016.72 1017.28 1017.44 1017.86
1013.97 1014.10 1014.10 1014.41 1014.69 1014.97 1015.39 1015.72 1016.03 1016.39 1016.46 1016.48 1016.62 1016.61 1016.93 1017.02 1017.26 1017.36 1017.37 1017.26 1017.40 1017.33 1017.32 1017.41 1017.48 1016.96 1016.59 1016.36 1016.09 1015.67 1015.80 1015.79 1015.79 1015.81 1015.77 1015.67 1015.79 1016.06 1016.22 1016.42 1016.58 1016.75 1017.26
1014.30 1014.29 1014.32 1014.29 1014.40 1014.48 1014.87 1015.18 1015.50 1015.65 1015.94 1016.03 1016.26 1016.20 1016.18 1016.57 1016.90 1016.86 1016.64 1016.71 1016.65 1016.77 1016.93 1016.88 1016.73 1016.43 1016.01 1016.32 1016.43 1015.83 1015.54 1015.63 1015.80 1015.70 1015.52 1015.45 1015.48 1015.59 1015.76 1015.93 1016.18 1016.25 1016.26
1015.17 1015.19 1015.17 1014.96 1014.65 1014.42 1014.57 1014.95 1015.34 1015.53 1015.72 1015.67 1015.78 1016.28 1016.50 1016.59 1016.47 1016.43 1016.28 1016.27 1016.20 1016.34 1016.53 1016.44 1016.26 1015.71 1015.75 1015.89 1015.81 1015.77 1015.02 1014.98 1014.99 1015.20 1015.40 1015.42 1015.46 1015.37 1015.32 1015.54 1015.84 1016.15 1016.21
1015.63 1015.67 1015.59 1015.63 1014.90 1014.69 1014.41 1014.42 1014.98 1015.75 1016.38 1016.74 1017.00 1017.21 1017.31 1017.41 1016.74 1016.61 1016.08 1015.96 1016.12 1016.22 1015.75 1015.80 1015.75 1015.64 1015.30 1015.45 1015.92 1015.36 1014.97 1014.42 1014.78 1015.17 1015.28 1015.31 1015.47 1015.55 1015.38 1015.36 1015.54 1015.82 1016.21
1016.46 1016.38 1016.15 1015.94 1015.60 1015.43 1015.42 1014.58 1014.22 1016.20 1017.32 1017.76 1017.77 1017.71 1017.86 1017.70 1018.13 1016.05 1015.78 1015.95 1015.59 1016.19 1016.54 1016.73 1016.97 1016.16 1016.35 1015.61 1015.84 1015.53 1015.25 1014.97 1014.56 1014.51 1015.22 1015.34 1015.57 1015.55 1015.67 1015.64 1015.60 1015.69 1015.99
1017.10 1016.89 1016.56 1016.38 1015.99 1015.65 1015.06 1014.53 1015.81 1016.66 1016.63 1017.61 1017.43 1018.12 1017.65 1016.93 1017.94 1017.01 1016.78 1017.04 1015.63 1015.81 1016.41 1016.56 1016.96 1016.52 1016.42 1016.07 1015.47 1015.26 1015.14 1014.97 1015.06 1014.88 1014.36 1014.64 1015.32 1015.96 1016.15 1015.87 1016.09 1016.01 1016.16
1017.34 1017.09 1016.83 1016.50 1016.40 1016.31 1016.66 1017.11 1017.32 1017.35 1017.13 1016.30 1017.53 1017.93 1018.03 1018.53 1018.56 1018.14 1017.11 1016.80 1016.39 1016.52 1016.70 1016.11 1016.16 1016.10 1015.89 1015.69 1015.56 1015.25 1014.94 1014.59 1014.38 1014.59 1014.53 1014.46 1014.75 1015.67 1016.30 1016.51 1016.51 1016.32 1016.31
Wind_Speed
12 17 16 16 15 14 14 15 15 16 16 17 17 17 16 15 16 16 16 16 15 17 18 18 17 16 16 15 14 13 12 12 14 12 12 11 11 11 11 11 7 12 10
19 17 18 16 15 15 15 15 15 15 15 15 16 16 16 16 16 15 16 15 15 17 17 17 16 15 14 15 13 13 11 10 10 10 11 12 11 11 11 10 8 11 10
20 17 17 16 16 15 14 14 15 15 15 16 15 15 15 15 16 15 14 13 15 15 15 15 14 13 12 12 12 12 11 10 9 10 7 8 10 9 10 10 10 9 9
19 17 17 16 16 16 15 14 13 14 14 15 15 15 15 15 15 15 13 13 14 13 13 12 12 11 10 8 7 3 5 7 8 7 5 7 9 8 9 9 8 9 8
17 16 16 17 16 16 16 16 14 14 14 14 14 14 14 14 14 13 12 12 13 12 11 11 10 10 8 7 4 2 0 5 8 4 7 7 6 8 8 7 7 8 5
18 18 19 17 17 17 17 16 14 14 14 13 14 14 14 14 13 12 12 11 11 11 10 10 9 7 6 6 5 4 6 10 7 6 5 6 4 8 7 7 6 6 6
16 15 17 18 18 18 18 16 14 13 13 13 13 13 12 12 11 11 11 11 11 10 9 8 7 6 5 5 5 5 8 8 4 5 5 4 6 6 6 7 6 5 5
16 15 15 14 15 16 15 15 13 12 11 11 11 11 11 11 10 9 9 9 9 9 8 7 6 5 4 4 4 5 8 5 5 4 3 3 6 6 6 7 7 6 5
13 13 12 14 13 12 12 12 12 12 12 11 10 10 9 10 8 8 7 7 8 8 7 6 6 5 4 3 3 4 7 6 3 2 4 3 8 8 8 7 7 6 6
13 13 12 11 12 12 12 14 14 13 12 12 12 12 10 9 9 8 7 8 8 7 6 5 5 4 5 3 2 3 4 6 6 4 5 3 9 10 9 9 8 8 7
11 12 12 12 12 11 11 11 12 13 13 11 11 10 9 8 9 9 5 3 5 4 4 4 5 5 4 5 4 5 5 4 4 4 4 7 11 11 10 9 9 9 8
15 15 12 13 13 12 10 11 11 10 9 9 9 10 8 8 7 6 5 6 6 4 4 4 5 6 8 4 4 7 5 5 4 4 5 9 14 14 13 12 11 10 10
14 11 14 13 13 13 11 8 6 6 6 7 10 9 8 7 6 6 4 5 5 5 5 5 5 5 5 5 4 3 4 5 4 3 5 9 14 16 15 14 13 12 11
13 15 15 15 12 12 8 7 8 7 7 6 8 10 7 6 6 5 4 4 4 4 4 5 3 4 6 6 8 7 6 5 3 3 4 8 12 15 16 16 15 14 12
16 16 14 14 12 12 11 8 9 9 9 9 9 10 8 8 6 6 5 5 5 4 4 5 4 4 5 7 7 8 8 6 5 4 4 8 13 16 17 17 16 15 14
15 14 14 14 13 12 11 11 9 8 10 9 8 9 11 8 7 6 5 5 6 5 5 5 4 5 5 7 9 8 9 8 6 5 4 5 13 14 17 17 17 17 15
7 8 11 12 12 13 12 11 9 9 9 9 8 9 10 9 8 7 6 6 6 5 6 5 5 5 6 7 10 8 7 8 7 6 5 5 5 14 16 17 17 17 16
4 3 6 7 10 12 11 8 7 7 7 6 6 5 9 9 8 6 6 5 5 4 6 5 5 6 7 7 8 7 6 5 6 7 5 5 4 5 12 17 17 13 16
7 5 4 1 6 8 8 8 7 8 6 5 5 5 7 10 10 8 6 6 7 6 6 5 6 6 6 7 8 7 6 6 6 5 7 5 6 6 5 10 16 13 12
7 7 6 4 4 1 4 4 4 5 6 5 6 6 8 7 9 8 6 7 7 7 7 6 9 8 8 7 8 7 5 5 5 5 6 6 6 7 8 8 7 9 13
11 10 8 6 3 3 3 2 4 6 5 5 6 8 9 7 8 8 7 9 9 9 9 10 10 11 8 8 6 6 6 6 7 6 5 6 6 7 7 7 6 5 5
12 11 10 10 10 7 4 1 2 3 2 2 3 5 7 8 9 10 10 10 11 8 10 11 12 8 6 5 4 3 4 4 5 5 4 3 5 5 6 7 6 6 4
14 13 12 11 12 11 12 8 7 5 5 6 7 7 9 11 8 9 11 9 8 8 9 11 10 9 9 4 9 5 3 3 1 2 3 3 3 3 4 4 5 6 6
14 13 9 9 11 9 7 11 17 9 4 3 5 5 6 10 11 9 7 8 8 5 7 5 5 5 5 7 4 8 4 3 4 3 2 1 1 3 2 3 4 5 6
13 13 15 16 17 17 15 14 9 7 7 4 5 8 9 9 8 8 7 8 5 1 5 2 7 6 3 5 6 3 5 5 5 7 8 3 3 1 1 2 3 3 5
12 13 13 16 15 15 13 11 11 11 8 9 8 8 7 7 6 8 1 3 2 2 5 5 7 8 6 6 6 7 6 5 5 6 6 7 5 2 1 1 2 2 3
Wind_Direction
154 149 156 156 154 142 134 126 121 121 119 118 120 120 117 111 108 107 106 107 106 104 103 100 99 99 99 98 95 91 89 88 86 84 86 85 85 87 88 86 103 89 88
147 152 156 155 154 147 139 132 126 123 123 124 125 125 120 117 113 109 109 111 110 109 108 107 106 105 104 100 95 88 83 83 85 86 95 94 93 97 96 88 79 89 84
146 151 158 155 154 147 140 138 134 133 133 132 132 129 125 117 112 109 109 112 112 111 109 108 107 106 105 104 102 99 84 84 88 97 96 80 90 90 89 94 92 93 85
147 153 157 156 154 150 145 138 137 136 137 135 134 131 127 120 116 114 113 115 115 114 113 111 108 105 102 100 105 100 78 103 100 108 92 83 93 92 92 102 98 96 94
153 154 155 157 155 154 152 146 146 143 138 135 132 131 128 123 120 117 115 120 121 121 119 114 110 106 104 101 92 75 143 154 128 151 95 94 88 103 111 101 112 107 72
158 161 154 160 159 158 155 152 150 146 139 139 137 138 135 133 131 128 127 128 125 124 121 118 115 112 106 96 81 71 74 139 158 109 110 109 84 108 120 120 101 103 97
163 167 164 163 162 161 158 155 152 150 143 143 143 143 142 138 142 136 137 135 133 131 130 129 127 122 110 96 78 81 119 131 134 113 122 131 111 142 139 133 125 120 115
167 169 165 169 163 160 160 155 153 148 146 146 146 147 150 150 151 148 150 148 144 144 146 147 145 139 127 107 89 70 145 162 173 135 147 150 125 165 160 154 151 143 131
176 174 171 173 169 159 156 153 152 152 152 151 152 155 157 162 165 164 170 174 167 168 168 170 170 167 163 155 137 126 170 177 226 177 201 207 171 186 180 172 167 159 148
178 181 178 179 179 174 167 164 164 166 160 160 161 164 166 168 180 190 195 194 195 189 189 203 205 204 190 199 204 180 193 198 235 221 228 219 195 202 192 187 180 175 165
188 186 185 181 178 182 178 175 176 172 169 165 170 171 170 190 186 182 183 194 224 206 205 241 242 251 261 220 222 230 233 248 248 250 250 176 208 212 208 199 195 187 183
190 188 193 191 187 185 185 183 189 181 184 183 186 184 193 191 196 209 210 226 249 254 262 271 269 270 262 273 213 207 242 259 259 258 263 198 212 211 211 209 205 195 197
192 194 200 196 197 195 194 188 188 190 187 188 190 193 193 190 198 204 208 212 223 207 242 222 232 254 281 292 279 270 269 258 248 256 270 224 222 214 213 208 209 207 203
198 204 201 199 201 202 201 196 187 192 195 198 200 195 191 196 197 207 213 214 226 229 248 254 266 287 287 282 282 280 258 263 272 268 274 242 227 218 221 213 210 211 208
206 205 203 201 205 204 205 197 198 198 197 200 200 198 200 203 200 205 208 226 234 232 244 254 257 268 276 273 277 281 281 278 274 265 267 211 221 220 223 220 212 213 210
212 205 200 206 206 210 216 214 209 205 207 206 207 207 205 206 198 203 205 226 243 241 247 264 285 292 284 291 281 271 278 278 271 261 251 255 223 220 220 225 213 214 209
230 227 216 211 209 219 223 223 221 218 210 215 217 212 214 215 210 207 209 224 244 252 270 281 283 270 267 267 266 262 268 276 277 255 259 250 216 224 220 224 220 215 210
249 291 243 235 228 232 233 238 240 245 241 241 239 227 222 223 228 218 223 234 246 252 254 255 262 258 258 258 260 253 242 244 248 252 249 236 238 243 205 225 232 221 209
77 72 80 336 262 262 254 260 253 266 249 261 266 247 233 228 223 223 222 228 236 238 243 254 258 246 246 242 241 240 236 242 239 252 257 241 230 237 236 198 228 234 215
78 78 85 98 108 158 242 234 260 259 257 243 246 251 250 248 240 225 233 236 234 246 243 236 249 236 247 253 251 241 256 254 251 246 252 251 232 217 223 230 217 223 218
60 70 73 80 87 144 171 232 242 255 253 244 244 241 242 245 244 231 227 226 214 224 231 227 238 238 239 242 255 237 243 244 250 246 249 261 252 232 221 223 227 227 201
62 62 66 70 75 80 110 95 299 278 272 312 340 343 304 270 238 226 226 229 220 220 216 225 221 236 238 209 247 260 256 216 223 231 228 275 294 242 219 215 218 222 223
70 73 75 75 76 81 89 81 69 54 51 33 36 24 0 354 314 244 234 228 224 225 222 220 226 233 246 192 222 262 222 253 240 175 235 319 317 264 251 220 211 217 206
75 73 76 79 78 77 97 103 96 94 76 27 39 25 11 358 328 337 264 226 198 202 264 322 322 281 326 297 229 238 264 318 270 271 202 240 330 241 271 261 203 187 178
82 79 79 73 64 61 57 69 81 109 123 109 68 28 1 17 308 332 294 276 347 211 249 259 279 315 316 295 289 285 241 238 249 262 282 218 167 81 357 262 256 206 180
102 98 94 88 79 76 79 86 99 100 89 109 87 53 31 341 329 328 13 319 326 295 251 277 272 278 293 277 271 264 258 256 236 227 246 264 279 147 201 241 235 205 186